TimeCST,TemperatureF,Dew PointF,Humidity,Sea Level PressureIn,VisibilityMPH,Wind Direction,Wind SpeedMPH,Gust SpeedMPH,PrecipitationIn,Events,Conditions,WindDirDegrees,DateUTC
12:15 AM,15.8,10.4,79,30.20,10.0,Calm,Calm,-,N/A,,Clear,0,2013-03-03 06:15:00
12:35 AM,14.0,10.4,86,30.20,10.0,Calm,Calm,-,N/A,,Clear,0,2013-03-03 06:35:00
12:55 AM,15.8,10.4,79,30.20,10.0,Calm,Calm,-,N/A,,Mostly Cloudy,0,2013-03-03 06:55:00
1:15 AM,15.8,10.4,79,30.20,10.0,Calm,Calm,-,N/A,,Scattered Clouds,0,2013-03-03 07:15:00
1:55 AM,15.8,10.4,79,30.19,10.0,Calm,Calm,-,N/A,,Clear,0,2013-03-03 07:55:00
2:15 AM,12.2,10.4,92,30.18,10.0,Calm,Calm,-,N/A,,Clear,0,2013-03-03 08:15:00
2:35 AM,14.0,10.4,86,30.17,10.0,Calm,Calm,-,N/A,,Clear,0,2013-03-03 08:35:00
2:55 AM,12.2,10.4,92,30.17,10.0,Calm,Calm,-,N/A,,Clear,0,2013-03-03 08:55:00
3:15 AM,15.8,12.2,86,30.17,10.0,Calm,Calm,-,N/A,,Mostly Cloudy,0,2013-03-03 09:15:00
3:35 AM,15.8,10.4,79,30.16,10.0,Calm,Calm,-,N/A,,Mostly Cloudy,0,2013-03-03 09:35:00
3:55 AM,15.8,10.4,79,30.16,10.0,Calm,Calm,-,N/A,,Mostly Cloudy,0,2013-03-03 09:55:00
4:15 AM,17.6,12.2,79,30.16,10.0,Calm,Calm,-,N/A,,Overcast,0,2013-03-03 10:15:00
4:35 AM,15.8,10.4,79,30.15,10.0,Calm,Calm,-,N/A,,Overcast,0,2013-03-03 10:35:00
4:55 AM,15.8,12.2,86,30.15,10.0,Calm,Calm,-,N/A,,Overcast,0,2013-03-03 10:55:00
5:15 AM,15.8,10.4,79,30.15,10.0,Calm,Calm,-,N/A,,Mostly Cloudy,0,2013-03-03 11:15:00
5:35 AM,12.2,8.6,85,30.15,10.0,Calm,Calm,-,N/A,,Scattered Clouds,0,2013-03-03 11:35:00
5:55 AM,12.2,6.8,79,30.16,10.0,Calm,Calm,-,N/A,,Clear,0,2013-03-03 11:55:00
6:15 AM,12.2,8.6,85,30.16,4.0,Calm,Calm,-,N/A,,Clear,0,2013-03-03 12:15:00
6:35 AM,12.2,10.4,92,30.16,3.0,Calm,Calm,-,N/A,,Clear,0,2013-03-03 12:35:00
6:55 AM,12.2,8.6,85,30.17,2.0,Calm,Calm,-,N/A,,Clear,0,2013-03-03 12:55:00
7:15 AM,12.2,8.6,85,30.17,1.2,Calm,Calm,-,N/A,,Mist,0,2013-03-03 13:15:00
7:35 AM,12.2,8.6,85,30.16,2.0,Calm,Calm,-,N/A,,Overcast,0,2013-03-03 13:35:00
7:55 AM,15.8,10.4,79,30.17,1.5,Calm,Calm,-,N/A,,Overcast,0,2013-03-03 13:55:00
8:15 AM,17.6,14.0,86,30.17,2.5,Calm,Calm,-,N/A,,Overcast,0,2013-03-03 14:15:00
8:35 AM,19.4,15.8,86,30.16,5.0,South,3.5,-,N/A,,Overcast,180,2013-03-03 14:35:00
8:55 AM,21.2,17.6,86,30.16,10.0,South,3.5,-,N/A,,Overcast,180,2013-03-03 14:55:00
9:15 AM,23.0,15.8,74,30.16,10.0,South,3.5,-,N/A,,Overcast,170,2013-03-03 15:15:00
9:35 AM,24.8,15.8,69,30.15,10.0,South,5.8,-,N/A,,Overcast,190,2013-03-03 15:35:00
9:55 AM,24.8,12.2,59,30.15,10.0,South,5.8,-,N/A,,Overcast,180,2013-03-03 15:55:00
10:15 AM,24.8,14.0,64,30.15,10.0,South,4.6,-,N/A,,Overcast,170,2013-03-03 16:15:00
10:35 AM,26.6,15.8,64,30.14,10.0,SSE,4.6,-,N/A,,Overcast,160,2013-03-03 16:35:00
10:55 AM,28.4,14.0,55,30.14,10.0,Calm,Calm,-,N/A,,Scattered Clouds,0,2013-03-03 16:55:00
11:15 AM,28.4,14.0,55,30.13,10.0,SE,4.6,-,N/A,,Mostly Cloudy,140,2013-03-03 17:15:00
11:35 AM,28.4,15.8,59,30.13,10.0,SE,4.6,-,N/A,,Overcast,130,2013-03-03 17:35:00
11:55 AM,28.4,15.8,59,30.13,10.0,SSE,5.8,-,N/A,,Overcast,160,2013-03-03 17:55:00
12:15 PM,28.4,15.8,59,30.13,10.0,SE,6.9,-,N/A,,Overcast,140,2013-03-03 18:15:00
12:35 PM,30.2,15.8,55,30.12,10.0,SSE,4.6,-,N/A,,Overcast,160,2013-03-03 18:35:00
12:55 PM,30.2,15.8,55,30.11,10.0,SE,6.9,-,N/A,,Overcast,130,2013-03-03 18:55:00
1:15 PM,30.2,15.8,55,30.10,10.0,SE,5.8,-,N/A,,Overcast,130,2013-03-03 19:15:00
1:35 PM,30.2,15.8,55,30.09,10.0,SE,6.9,-,N/A,,Overcast,130,2013-03-03 19:35:00
1:55 PM,32.0,15.8,51,30.08,10.0,ESE,9.2,-,N/A,,Overcast,120,2013-03-03 19:55:00
2:15 PM,32.0,15.8,51,30.07,10.0,SE,6.9,-,N/A,,Overcast,140,2013-03-03 20:15:00
2:35 PM,32.0,15.8,51,30.06,10.0,SSE,6.9,-,N/A,,Overcast,150,2013-03-03 20:35:00
2:55 PM,32.0,14.0,48,30.06,10.0,SSE,6.9,-,N/A,,Overcast,150,2013-03-03 20:55:00
3:15 PM,32.0,15.8,51,30.06,10.0,SE,8.1,-,N/A,,Overcast,140,2013-03-03 21:15:00
3:35 PM,32.0,14.0,48,30.05,10.0,South,9.2,-,N/A,,Overcast,170,2013-03-03 21:35:00
3:55 PM,32.0,14.0,48,30.05,10.0,South,9.2,-,N/A,,Overcast,170,2013-03-03 21:55:00
4:15 PM,32.0,15.8,51,30.05,10.0,SE,6.9,-,N/A,,Overcast,140,2013-03-03 22:15:00
4:35 PM,32.0,15.8,51,30.04,10.0,ESE,6.9,-,N/A,,Overcast,120,2013-03-03 22:35:00
4:55 PM,32.0,15.8,51,30.05,10.0,SE,4.6,-,N/A,,Overcast,140,2013-03-03 22:55:00
5:15 PM,32.0,17.6,55,30.04,10.0,SE,5.8,-,N/A,,Overcast,140,2013-03-03 23:15:00
5:35 PM,32.0,17.6,55,30.04,10.0,SE,4.6,-,N/A,,Overcast,130,2013-03-03 23:35:00
5:55 PM,30.2,17.6,60,30.03,10.0,East,5.8,-,N/A,,Overcast,90,2013-03-03 23:55:00
6:35 PM,30.2,17.6,60,30.04,10.0,East,5.8,-,N/A,,Overcast,90,2013-03-04 00:35:00
6:55 PM,30.2,17.6,60,30.04,10.0,East,4.6,-,N/A,,Overcast,90,2013-03-04 00:55:00
7:15 PM,30.2,17.6,60,30.04,10.0,ESE,8.1,-,N/A,,Mostly Cloudy,120,2013-03-04 01:15:00
7:35 PM,30.2,17.6,60,30.03,10.0,ESE,10.4,-,N/A,,Scattered Clouds,110,2013-03-04 01:35:00
7:55 PM,30.2,17.6,60,30.03,10.0,ESE,8.1,-,N/A,,Overcast,120,2013-03-04 01:55:00
8:15 PM,30.2,17.6,60,30.02,10.0,ESE,10.4,-,N/A,,Overcast,120,2013-03-04 02:15:00
8:35 PM,30.2,17.6,60,30.02,10.0,ESE,10.4,-,N/A,,Overcast,110,2013-03-04 02:35:00
8:55 PM,30.2,15.8,55,30.02,10.0,ESE,10.4,-,N/A,,Overcast,110,2013-03-04 02:55:00
9:15 PM,30.2,15.8,55,30.02,10.0,ESE,10.4,-,N/A,,Overcast,110,2013-03-04 03:15:00
9:35 PM,30.2,15.8,55,30.03,10.0,ESE,8.1,-,N/A,,Overcast,120,2013-03-04 03:35:00
9:55 PM,30.2,15.8,55,30.02,10.0,ESE,8.1,-,N/A,,Overcast,110,2013-03-04 03:55:00
10:15 PM,30.2,15.8,55,30.03,10.0,ESE,9.2,-,N/A,,Overcast,120,2013-03-04 04:15:00
10:35 PM,30.2,15.8,55,30.03,10.0,SE,8.1,-,N/A,,Overcast,130,2013-03-04 04:35:00
10:55 PM,30.2,15.8,55,30.02,10.0,ESE,8.1,-,N/A,,Overcast,120,2013-03-04 04:55:00
11:15 PM,30.2,17.6,60,30.02,10.0,ESE,9.2,-,N/A,,Overcast,110,2013-03-04 05:15:00
11:35 PM,30.2,17.6,60,30.02,10.0,ESE,9.2,-,N/A,,Overcast,110,2013-03-04 05:35:00
11:55 PM,30.2,17.6,60,30.02,10.0,ESE,10.4,-,N/A,,Overcast,110,2013-03-04 05:55:00